[[{"header":{"parameterUnit":"m.s-1","parameterCategory":1,"la1":30.2991,"la2":30.254,"lo1":-89.0895,"lo2":-89.0444,"dy":0.0017,"dx":0.0017,"nx":28,"ny":28,"refTime":"2025-06-05T21:00:00:Z","depth":0,"parameterNumber":2,"parameterNumberName":"U-component_of_WINDS"},"data":[0,0,0,0,0,0,0,0,0,0,0,0,0,0,0,0,0,0,0,0,0,0,0,0,0,0,0,0,0,0,0,0,0,0,0,0,0,0,0,0,0,0,0,0,0,0,0,0,0,0,0,0,0,0,0,0,0,0,2.7085,2.7085,0,2.7104,2.7104,2.7105,2.7026,2.7024,2.7022,2.7019,2.7041,2.7044,2.7047,0,0,0,0,0,0,0,0,0,0,0,0,0,2.6981,2.6983,2.7085,2.7085,2.7086,2.7104,2.7104,2.7105,2.7027,2.7024,2.7021,2.7018,2.7041,2.7044,2.7047,0,0,0,0,0,0,0,0,0,0,0,0,0,2.7016,2.6984,2.7085,2.7049,2.7046,2.7104,2.7104,2.7105,2.7027,2.7024,2.702,2.7017,2.704,2.7044,2.7048,2.7143,0,0,2.706,2.7062,0,0,0,0,0,0,0,0,2.7014,2.702,2.7054,2.7051,2.7048,2.7059,2.7076,2.7118,2.7028,2.7034,2.7019,2.7015,2.705,2.7053,2.7065,2.7144,2.7145,2.7061,2.7063,2.7065,2.7066,0,0,0,0,0,0,0,2.7012,2.7019,2.7093,2.7054,2.7051,2.7032,2.7033,2.7083,2.7062,2.7033,2.7028,2.7031,2.7048,2.7061,2.7065,2.7145,2.706,2.7064,2.7067,2.7068,2.7299,2.7303,0,0,0,0,0,0,2.7014,2.7017,2.7092,2.7093,2.7022,2.7036,2.7037,2.7059,2.7061,2.7058,2.7034,2.7027,2.7056,2.706,2.7065,2.7173,2.7065,2.7069,2.7071,2.7296,2.73,2.7304,0,0,0,0,0,0,2.7012,2.7021,2.7091,2.7054,2.7061,2.7042,2.7067,2.7061,2.7074,2.7061,2.7057,2.7051,2.7053,2.7059,2.7123,2.7173,2.7071,2.7074,2.7291,2.7297,2.7302,2.7393,0,0,0,0,0,0,2.7009,2.7021,2.7057,2.7055,2.7063,2.7149,2.707,2.7064,2.7081,2.7072,2.7076,2.7073,2.7051,2.7117,2.7127,2.7177,2.7078,2.7287,2.7294,2.73,2.7386,2.7401,2.7414,0,0,0,0,0,2.7006,2.7084,2.7059,2.7069,2.7108,2.7152,2.7157,2.7129,2.7086,2.7121,2.7112,2.7073,2.7167,2.7124,2.7135,2.7187,2.7283,2.7292,2.73,2.7379,2.7398,2.7414,0,0,0,0,0,0,2.7094,2.7083,2.7056,2.7135,2.7145,2.7139,2.7183,2.715,2.7173,2.7164,2.7129,2.713,2.72,2.72,2.7153,2.7277,2.7217,2.7228,2.7274,2.7292,2.7306,2.7304,2.7081,0,0,0,0,0,2.7122,2.7159,2.7147,2.7218,2.7224,2.7203,2.7221,2.7198,2.7208,2.7212,2.7208,2.7219,2.725,2.7271,2.73,2.7386,2.7384,2.7427,2.7441,2.7453,2.7462,2.7504,2.7522,2.7331,2.7331,2.7331,0,0,2.7182,2.718,2.7206,2.7236,2.7241,2.7278,2.7207,2.7251,2.7279,2.7219,2.7277,2.7275,2.7284,2.7359,2.7391,2.7361,2.7514,2.7463,2.7473,2.7475,2.7514,2.7532,2.7549,2.7337,2.7336,2.7335,0,0,2.7309,2.7312,2.737,2.7376,2.7383,2.7368,2.7382,2.738,2.7376,2.7434,2.7388,2.7421,2.7477,2.7484,2.7496,2.7623,2.7586,2.7633,2.7708,2.7749,2.7764,2.7777,2.782,2.7836,2.7643,2.7643,2.7643,0,2.7382,2.7437,2.7404,2.745,2.7463,2.7409,2.7466,2.7474,2.7491,2.7502,2.7468,2.7534,2.7537,2.761,2.7641,2.7653,2.7666,2.7632,2.7765,2.7778,2.7789,2.7829,2.7846,2.7648,2.7648,2.7647,2.7647,0,2.7524,2.7563,2.7609,2.7624,2.7643,2.7695,2.767,2.7693,2.7668,2.7656,2.7715,2.7716,2.7742,2.7759,2.7736,2.7828,2.7809,2.7771,2.7709,2.7813,2.785,2.7866,2.7656,2.7654,2.7652,2.7651,0,0,2.7708,2.7702,2.772,2.7724,2.7728,2.7757,2.7806,2.7829,2.7849,2.7863,2.7901,2.7948,2.7911,2.7924,2.7902,2.7939,2.8035,2.7895,2.7895,2.7919,2.8134,2.8161,2.8179,2.8012,2.8015,2.8017,2.8132,0,2.783,2.7911,2.7882,2.7965,2.7998,2.7946,2.7988,2.7995,2.7985,2.8012,2.8002,2.8034,2.7985,2.7992,2.8026,2.8016,2.8077,2.8008,2.8046,2.8048,2.8043,2.8199,2.8228,2.8337,2.8147,2.8149,2.8151,0,2.7983,2.7999,2.8085,2.8079,2.8092,2.8131,2.8148,2.8176,2.8181,2.8171,2.8185,2.8153,2.82,2.814,2.8202,2.8155,2.8169,2.8167,2.817,2.8171,2.8104,2.8201,2.8371,2.8386,2.8174,2.8172,2.817,0,2.8104,2.8148,2.8204,2.821,2.8206,2.8233,2.8233,2.8235,2.8251,2.8267,2.8276,2.8299,2.831,2.8328,2.8303,2.8263,2.8369,2.8307,2.836,2.8361,2.8383,2.8382,2.8555,2.8397,2.8397,2.8396,2.8396,0,2.8241,2.8295,2.8258,2.8292,2.835,2.8316,2.8375,2.8369,2.8371,2.8402,2.836,2.8391,2.8358,2.8385,2.8367,2.8419,2.8426,2.8418,2.8412,2.842,2.8421,2.8428,2.8418,2.8401,2.84,2.8399,2.8398,0,2.8386,2.8363,2.842,2.841,2.8409,2.8452,2.8444,2.8475,2.8461,2.8502,2.851,2.8489,2.8519,2.8496,2.8527,2.8514,2.8582,2.8567,2.858,2.8575,2.8628,2.8622,2.8809,2.8831,2.8662,2.8663,2.8665,0,2.8474,2.8513,2.8507,2.8524,2.8526,2.8555,2.857,2.8538,2.8555,2.8562,2.8592,2.8618,2.8637,2.8687,2.8675,2.8697,2.8681,2.8745,2.8684,2.869,2.8678,2.8675,2.8677,2.8756,2.8758,2.876,2.8761,0,2.8631,2.8617,2.8639,2.8657,2.8675,2.8688,2.8697,2.8714,2.8681,2.8703,2.8732,2.8746,2.8775,2.8801,2.8819,2.8818,2.8784,2.8781,2.8793,2.8801,2.8806,2.8801,2.8611,2.8776,2.8775,2.8774,2.8773,2.8772,2.8748,2.8779,2.8779,2.8804,2.8807,2.8816,2.8844,2.8833,2.8856,2.8876,2.8856,2.8891,2.8893,2.8913,2.8917,2.8943,2.8916,2.8936,2.894,2.8945,2.8951,2.8803,2.8947,2.8946,2.8946,2.8945,2.8945,0,2.89,2.8897,2.892,2.8933,2.8953,2.8918,2.8926,2.8945,2.8975,2.898,2.8998,2.9031,2.9055,2.9044,2.9065,2.9088,2.9072,2.9094,2.9091,2.9091,2.8975,2.896,2.9106,2.9106,2.9106,2.9106,2.9106,2.9106,2.8982,2.9032,2.9018,2.9068,2.9065,2.9097,2.9104,2.9112,2.9115,2.9152,2.9171,2.9163,2.9161,2.9181,2.9201,2.9197,2.9206,2.9233,2.9223,2.9115,2.9099,2.9084,2.907,2.9236,2.9236,2.9336,2.9337,2.9337]},{"header":{"parameterUnit":"m.s-1","parameterCategory":1,"la1":30.2991,"la2":30.254,"lo1":-89.0895,"lo2":-89.0444,"dy":0.0017,"dx":0.0017,"nx":28,"ny":28,"refTime":"2025-06-05T21:00:00:Z","depth":0,"parameterNumber":3,"parameterNumberName":"V-component_of_WINDS"},"data":[0,0,0,0,0,0,0,0,0,0,0,0,0,0,0,0,0,0,0,0,0,0,0,0,0,0,0,0,0,0,0,0,0,0,0,0,0,0,0,0,0,0,0,0,0,0,0,0,0,0,0,0,0,0,0,0,0,0,3.7527,3.7529,0,3.7697,3.7699,3.7701,3.7715,3.7714,3.7712,3.771,3.788,3.7886,3.7892,0,0,0,0,0,0,0,0,0,0,0,0,0,3.7209,3.7215,3.7526,3.7529,3.7531,3.7697,3.7699,3.7701,3.7716,3.7714,3.7711,3.7709,3.7878,3.7886,3.7893,0,0,0,0,0,0,0,0,0,0,0,0,0,3.736,3.7217,3.7526,3.7558,3.7563,3.7696,3.7699,3.7702,3.7716,3.7713,3.7711,3.7708,3.7876,3.7885,3.7894,3.8006,0,0,3.7923,3.7927,0,0,0,0,0,0,0,0,3.7351,3.7372,3.7551,3.7556,3.7562,3.7682,3.765,3.7804,3.7717,3.7658,3.771,3.7707,3.7816,3.783,3.7868,3.8014,3.8021,3.7923,3.7929,3.7933,3.7936,0,0,0,0,0,0,0,3.7341,3.7364,3.7594,3.7554,3.756,3.7562,3.7581,3.7679,3.775,3.7663,3.7664,3.7684,3.7818,3.7859,3.7872,3.8024,3.7923,3.7931,3.7937,3.7941,3.8268,3.8271,0,0,0,0,0,0,3.7325,3.7356,3.7588,3.7599,3.7448,3.757,3.7591,3.7646,3.7749,3.7762,3.7687,3.7684,3.7844,3.7861,3.7878,3.8015,3.7933,3.7942,3.7947,3.8265,3.8269,3.8272,0,0,0,0,0,0,3.7318,3.7346,3.7582,3.7478,3.7508,3.7579,3.7641,3.7651,3.7692,3.7767,3.7779,3.7715,3.7843,3.7865,3.7974,3.8021,3.7946,3.7954,3.8262,3.8267,3.8271,3.829,0,0,0,0,0,0,3.7309,3.7343,3.7388,3.7479,3.7514,3.7676,3.7644,3.7656,3.7708,3.7707,3.7797,3.781,3.7843,3.796,3.7983,3.8033,3.7962,3.8258,3.8264,3.8269,3.8286,3.8295,3.8303,0,0,0,0,0,3.7298,3.7386,3.739,3.7418,3.7571,3.7679,3.7699,3.7736,3.7712,3.7756,3.7805,3.7807,3.8013,3.7971,3.7997,3.805,3.8255,3.8262,3.8269,3.8282,3.8293,3.8303,0,0,0,0,0,0,3.7297,3.7398,3.7404,3.7524,3.7593,3.7681,3.7738,3.7747,3.7823,3.7818,3.786,3.788,3.7988,3.803,3.7982,3.8163,3.8131,3.8144,3.8132,3.8143,3.8152,3.8139,3.7969,0,0,0,0,0,3.7311,3.7392,3.7475,3.7573,3.7608,3.7667,3.7716,3.7739,3.7811,3.7839,3.7896,3.7964,3.8045,3.8096,3.8174,3.8292,3.8311,3.8341,3.835,3.8357,3.8367,3.8431,3.8445,3.8295,3.8295,3.8295,0,0,3.7341,3.7406,3.7454,3.7575,3.7631,3.7712,3.7691,3.7778,3.7838,3.7852,3.7959,3.8002,3.8082,3.8195,3.8248,3.8234,3.8412,3.8366,3.837,3.8377,3.8439,3.8453,3.8466,3.83,3.8299,3.8299,0,0,3.7435,3.7494,3.7581,3.7638,3.7723,3.7762,3.7783,3.787,3.79,3.8008,3.802,3.8091,3.8228,3.8284,3.833,3.8446,3.845,3.847,3.8515,3.8577,3.8589,3.8599,3.8639,3.8653,3.848,3.848,3.848,0,3.7461,3.7585,3.7625,3.7712,3.7764,3.7781,3.7869,3.7922,3.8028,3.8062,3.8045,3.8218,3.8273,3.8399,3.8427,3.8464,3.8488,3.846,3.8584,3.8595,3.8605,3.8644,3.8659,3.8482,3.8482,3.8481,3.8481,0,3.7611,3.7697,3.7757,3.786,3.7919,3.8006,3.8057,3.8112,3.813,3.817,3.8278,3.8345,3.8436,3.8468,3.8486,3.8597,3.8585,3.8576,3.8544,3.8621,3.8658,3.8673,3.8484,3.8484,3.8483,3.8483,0,0,3.771,3.7834,3.7855,3.7902,3.7997,3.8063,3.815,3.8241,3.8286,3.8358,3.8431,3.8547,3.8539,3.8591,3.8615,3.867,3.8756,3.8654,3.8656,3.8669,3.888,3.8886,3.8903,3.8759,3.8762,3.8765,3.8873,0,3.7815,3.7972,3.801,3.8143,3.8222,3.824,3.8315,3.8381,3.842,3.8492,3.8535,3.8616,3.86,3.8631,3.8686,3.8734,3.8798,3.8726,3.8826,3.8829,3.8804,3.8922,3.8929,3.9028,3.8888,3.889,3.8892,0,3.7958,3.8034,3.8176,3.826,3.8295,3.8362,3.8447,3.8516,3.859,3.8615,3.8674,3.8693,3.8782,3.8746,3.8869,3.8819,3.8862,3.8891,3.8896,3.8906,3.8864,3.8934,3.9061,3.9075,3.8916,3.8914,3.8912,0,3.8014,3.8152,3.8255,3.8294,3.8395,3.8442,3.8486,3.8558,3.8609,3.8684,3.8717,3.8801,3.8846,3.8909,3.8949,3.8919,3.9068,3.9036,3.909,3.9089,3.9119,3.9117,3.9254,3.9149,3.9149,3.9148,3.9148,0,3.8127,3.8212,3.8281,3.8344,3.844,3.8482,3.8575,3.862,3.8683,3.8754,3.8774,3.8839,3.8888,3.896,3.8992,3.9088,3.9108,3.913,3.9137,3.9128,3.9125,3.9155,3.9149,3.9152,3.9152,3.9151,3.915,0,3.8205,3.8255,3.8368,3.8455,3.8478,3.8545,3.8618,3.8679,3.8719,3.8808,3.8831,3.8894,3.898,3.9026,3.9133,3.9154,3.9261,3.9265,3.9236,3.9239,3.929,3.9284,3.9451,3.9474,3.9355,3.9356,3.9357,0,3.8273,3.8339,3.8433,3.8483,3.8528,3.8607,3.866,3.8704,3.8758,3.8847,3.8897,3.8984,3.9055,3.9191,3.9245,3.9326,3.9332,3.9384,3.9344,3.9332,3.9331,3.9326,3.9332,3.9391,3.9392,3.9393,3.9394,0,3.8387,3.8409,3.8485,3.857,3.8633,3.8702,3.877,3.8809,3.8864,3.8923,3.9012,3.9067,3.9177,3.9262,3.9348,3.9391,3.9401,3.9406,3.9423,3.9413,3.9393,3.9403,3.9254,3.9402,3.9401,3.94,3.94,3.94,3.8462,3.8521,3.8597,3.8681,3.8737,3.88,3.8861,3.8909,3.8984,3.9077,3.9098,3.9191,3.9263,3.9379,3.9425,3.9497,3.9487,3.9511,3.9517,3.9522,3.9523,3.9383,3.9513,3.9513,3.9513,3.9513,3.9512,0,3.8576,3.8626,3.8703,3.8798,3.8863,3.8869,3.8944,3.8998,3.908,3.9147,3.9217,3.9318,3.9401,3.9462,3.9546,3.9592,3.9598,3.9612,3.9608,3.9618,3.9528,3.9505,3.9605,3.9605,3.9605,3.9605,3.9605,3.9605,3.8643,3.8744,3.8774,3.8902,3.8951,3.9043,3.9085,3.9143,3.9196,3.9308,3.9377,3.9417,3.9481,3.957,3.9646,3.9661,3.9691,3.9704,3.972,3.9635,3.9625,3.9615,3.9593,3.971,3.9711,3.9803,3.9804,3.9805]}]]